Flag for U.S.A. Weather past 2 weeks in Charleston, South Carolina, U.S.A.

Now
96 °F

Passing clouds.


Feels Like: 106 °F
Forecast: 77 / 94 °F
Wind: 5 mph from North

Location: Charleston Air Force Base Reporting Station

Current Time: Aug 21, 2014 at 6:42:39 PM

Latest Report: Aug 21, 2014 at 5:56 PM


Visibility: 10 mi

Pressure: 30.01 "Hg

Humidity: 47%

Dew point: 73 °F

Location of CharlestonLocation

Historic Weather in Charleston — Graph

°F

Charleston temperature yesterday

Maximum temperature yesterday: 95 °F (at 3:56 PM)
Minimum temperature yesterday: 75 °F (at 5:56 AM)
Average temperature yesterday: 85 °F

Past Weeks' High & Low Weather Summary

 TemperatureHumidityPressure
High96 °F (Aug 7, 3:56 PM)94% (Aug 10, 5:56 AM)30.08 "Hg (Aug 10, 5:56 AM)
Low72 °F (Aug 14, 6:56 AM)34% (Aug 6, 4:56 PM)29.83 "Hg (Aug 12, 3:56 PM)
Average83 °F72%29.96 "Hg
* Reported Aug 6 4:56 PM — Aug 21 4:56 PM, Charleston, Weather by CustomWeather, © 2014

Note: Actual official high and low records may vary slightly from our data, if they occured in-between our weather recording intervals... More about our weather records

Advertising

Charleston weather history for previous 24 hours

 ConditionsComfort  
Time TempWeatherWind HumidityBarometerVisibility
4:56 PM
Aug 21
96 °FScattered clouds.7 mph47%30.02 "Hg10 mi
3:56 PM93 °FScattered clouds.10 mph50%30.01 "Hg10 mi
2:56 PM94 °FScattered clouds.7 mph51%30.03 "Hg10 mi
1:56 PM95 °FScattered clouds.5 mph49%30.05 "Hg10 mi
12:56 PM93 °FPassing clouds.6 mph54%30.06 "Hg10 mi
11:56 AM91 °FPassing clouds.7 mph56%30.07 "Hg10 mi
10:56 AM89 °FScattered clouds.3 mph57%30.08 "Hg10 mi
9:56 AM85 °FScattered clouds.3 mph65%30.08 "Hg10 mi
8:56 AM81 °FScattered clouds.5 mph72%30.07 "Hg10 mi
7:56 AM78 °FScattered clouds.6 mph79%30.06 "Hg10 mi
6:56 AM76 °FPassing clouds.3 mph85%30.03 "Hg10 mi
5:56 AM77 °FClear.5 mph82%30.01 "Hg10 mi
4:56 AM78 °FClear.6 mph82%30.01 "Hg10 mi
3:56 AM80 °FClear.3 mph76%30.01 "Hg10 mi
2:56 AM80 °FClear.3 mph79%30.01 "Hg10 mi
1:56 AM80 °FClear.3 mph81%30.02 "Hg10 mi
12:56 AM83 °FClear.5 mph72%30.03 "Hg10 mi
11:56 PM
Aug 20
84 °FClear.8 mph83%30.04 "Hg10 mi
10:56 PM84 °FClear.6 mph83%30.03 "Hg10 mi
9:56 PM84 °FClear.7 mph83%30.01 "Hg10 mi
8:56 PM84 °FSunny.7 mph74%29.99 "Hg10 mi
7:56 PM90 °FPassing clouds.3 mph54%29.97 "Hg10 mi
6:56 PM93 °FPassing clouds.5 mph47%29.96 "Hg10 mi
Weather by CustomWeather, © 2014

See weather overviewHow to use our weather pages